This is the latest recevied weather packets stored in our database for station/object XE2VP-WX. If no packets are shown the sender has not sent any weather packets the latest 1 day(s).
| Time | Temp. | Humidity | Pressure | Rain* | Wind** | Luminosity | Snow |
|---|---|---|---|---|---|---|---|
| 1778010001 | 35.56° C | 26% | 937.6 hPa | 0 mm | 1.34 m/s, 259° | 908 W/m² | - |
| 1778009942 | 35.56° C | 26% | 937.6 hPa | 0 mm | 1.34 m/s, 233° | 890 W/m² | - |
| 1778009881 | 35.56° C | 26% | 937.6 hPa | 0 mm | 1.34 m/s, 144° | 888 W/m² | - |
| 1778009821 | 35.56° C | 26% | 937.6 hPa | 0 mm | 1.79 m/s, 316° | 895 W/m² | - |
| 1778009762 | 35.56° C | 27% | 937.7 hPa | 0 mm | 1.34 m/s, 280° | 909 W/m² | - |
| 1778009701 | 35.56° C | 27% | 937.7 hPa | 0 mm | 1.34 m/s, 352° | 943 W/m² | - |
| 1778009641 | 35.56° C | 27% | 937.7 hPa | 0 mm | 1.34 m/s, 257° | 956 W/m² | - |
| 1778009581 | 35.56° C | 27% | 937.7 hPa | 0 mm | 1.34 m/s, 17° | 879 W/m² | - |
| 1778009521 | 35.56° C | 27% | 937.7 hPa | 0 mm | 0.89 m/s, 15° | 871 W/m² | - |
| 1778009462 | 35.56° C | 26% | 937.7 hPa | 0 mm | 0.89 m/s, 23° | 923 W/m² | - |
| 1778009401 | 35.56° C | 27% | 937.7 hPa | 0 mm | 0.89 m/s, 36° | 884 W/m² | - |
| 1778009341 | 35.56° C | 26% | 937.7 hPa | 0 mm | 0.89 m/s, 272° | 899 W/m² | - |
| 1778009281 | 35.56° C | 27% | 937.7 hPa | 0 mm | 0.89 m/s, 54° | 880 W/m² | - |
| 1778009222 | 35.56° C | 27% | 937.7 hPa | 0 mm | 0.89 m/s, 211° | 735 W/m² | - |
| 1778009160 | 35.56° C | 26% | 937.8 hPa | 0 mm | 0.89 m/s, 100° | 685 W/m² | - |
| 1778009101 | 35° C | 27% | 937.8 hPa | 0 mm | 0.89 m/s, 197° | 859 W/m² | - |
| 1778009041 | 35° C | 27% | 937.8 hPa | 0 mm | 0.89 m/s, 231° | 970 W/m² | - |
| 1778008981 | 35° C | 27% | 937.8 hPa | 0 mm | 0.89 m/s, 269° | 979 W/m² | - |
| 1778008920 | 35° C | 27% | 937.8 hPa | 0 mm | 0.89 m/s, 6° | 964 W/m² | - |
| 1778008861 | 35° C | 27% | 937.8 hPa | 0 mm | 0.89 m/s, 27° | 920 W/m² | - |
| 1778008801 | 35° C | 27% | 937.9 hPa | 0 mm | 0.89 m/s, 227° | 831 W/m² | - |
| 1778008741 | 35° C | 27% | 937.9 hPa | 0 mm | 1.34 m/s, 198° | 763 W/m² | - |
| 1778008682 | 35° C | 27% | 937.9 hPa | 0 mm | 1.34 m/s, 326° | 809 W/m² | - |
| 1778008621 | 35° C | 28% | 937.9 hPa | 0 mm | 1.34 m/s, 345° | 700 W/m² | - |
| 1778008561 | 34.44° C | 28% | 937.9 hPa | 0 mm | 1.34 m/s, 355° | 568 W/m² | - |
* Rain latest hour (hover to see other rain measurements)
** Current wind speed in m/s (hover to see current wind gust speed)